Reflectivity
-20 -20 4 -20 -8 -20 -16 -6 -20 -20 -20 -20 -20 -20 -20 -20 -20 -16 -20 -20 -20 9 1 -12 -20 0 7 1 2 -20 -20 -20 -20 -20 -20 -20 -20 -20 -20 -20 -20 9 -0
-20 -20 7 -13 -2 -7 -2 -3 -4 -20 -8 -20 -10 -2 -20 -20 -5 -20 9 -13 12 -19 -5 -8 2 1 8 9 -19 -18 8 -18 -20 -20 -20 -20 -20 -20 -20 -20 -20 -2 -20
-20 -20 -17 14 -1 -3 -2 -20 -20 -20 -20 -19 -1 2 2 2 3 -8 -20 -20 -18 -8 4 -3 7 4 4 -12 -20 -8 -20 -20 -20 -20 -20 -20 -20 -20 -20 -20 -20 -20 -19
-20 -20 7 -11 8 -7 -1 -8 -20 -20 6 0 1 -19 7 -20 -20 -3 -16 8 10 5 4 2 -20 -7 -20 -18 -9 -20 -20 -20 -20 -20 -20 -20 -20 -6 -4 -18 -20 -20 -20
-20 -20 -20 -10 5 1 -0 1 0 16 -18 -17 9 2 -20 -20 -0 -4 3 -20 -20 -14 -11 -20 -20 -20 -20 -20 -20 -20 -20 -20 -20 -20 -20 13 -20 16 -16 -20 -20 -20 -20
-20 -20 5 -11 -2 -20 -20 -19 2 10 7 10 -15 -9 -20 -20 -20 -20 -20 -20 -20 -20 -20 -20 -20 -20 -20 -20 -20 -20 -20 -20 -20 -20 -20 -20 -20 -19 -20 -20 -20 -20 -20
-8 -20 4 -18 4 -20 -19 16 6 14 10 -20 -20 -20 -20 -20 -20 -20 -20 -20 -20 -20 -20 -20 -20 -20 -20 -20 -20 -20 -20 -20 -20 -20 -20 -20 13 -20 -20 -20 -20 -20 -20
-8 -6 13 9 -20 -20 24 9 11 11 -20 -20 -20 -20 -20 -20 -20 -20 -20 -20 -20 -20 -20 -20 -20 -20 -20 -20 -20 -20 -20 -20 -20 -20 -20 -20 -12 -20 -20 -20 -20 -20 -15
7 13 21 -1 -1 13 10 -11 11 -9 -20 -20 -20 -20 -20 -20 -20 -20 -20 -20 -20 -20 -20 -20 -20 -20 -20 -20 -20 -20 -20 -20 -20 -20 -20 -20 -20 -20 -20 -20 -20 12 -11
13 16 5 19 19 20 -20 8 7 -20 -20 -20 -20 -20 -20 -20 -20 -20 -20 -20 -20 -20 -20 -20 -20 -20 -20 -20 -20 -20 -20 -20 -20 -20 -20 -20 -20 -20 -20 -18 18 3 17
-14 6 29 15 5 -20 -20 -20 -20 -20 -20 -20 -20 -20 -20 -20 -20 -20 -20 -20 -20 -20 -20 -20 -20 -20 -20 -20 -20 -20 -20 -20 -20 -20 -20 -17 -20 -8 22 9 18 8 1
18 -18 -20 -20 11 -5 13 -20 -20 -20 -20 -20 -20 -20 -20 -20 -20 -20 -20 -20 -20 -20 -20 -20 -20 -20 -20 -20 -20 -20 -20 -20 -20 -20 -9 9 21 14 -7 6 14 1 -20
29 -8 -19 26 -16 9 -1 -14 -20 -20 -20 -20 -20 -20 -20 -20 -20 -20 -20 -20 -20 -20 -20 -20 -20 -20 -20 -20 -20 -20 -20 -20 -20 -20 -20 13 13 10 -2 -16 -20 -20 -20
-12 33 -19 -1 -7 -18 -13 -4 -20 -20 -20 -20 -20 -20 -20 -20 -20 -20 -20 -20 -20 -20 -20 -20 -20 -20 -20 -20 -20 -20 -20 -20 -20 -20 -20 -20 8 8 -7 -17 -20 -20 -14
-13 0 33 19 -20 -15 -18 11 -20 -20 -20 -20 -20 -20 -20 -20 -20 -20 -20 -20 -20 -20 -20 -20 -20 -20 -20 -20 -20 -20 -20 -20 -20 -20 -20 -20 -20 -20 -20 -20 -20 -20 -20
-20 8 42 27 17 -20 -20 17 -20 -20 -20 -20 -20 -20 -20 -20 -20 -20 -20 -20 -20 -20 -20 -20 -20 -20 -20 -20 -20 -20 -20 -20 -20 -20 -20 -20 -20 -20 -20 -20 -20 -20 -20
-20 7 -3 47 29 25 -19 24 -20 -20 -20 -20 -20 -20 -20 -20 -20 -20 -20 -20 -20 -20 -20 -20 -20 -20 -20 -20 -20 -20 -20 -20 -20 -20 -20 -20 -20 -20 -20 -20 -20 -20 -20
-20 5 -12 36 21 19 -12 -6 11 -20 -20 -20 -20 -20 -20 -20 -20 -20 -20 -20 -20 -20 -20 -20 -20 -20 -20 -20 -20 -20 -20 -20 -20 -20 -20 -20 -20 -20 -20 -20 -20 -20 -20
-20 -7 -9 30 25 2 -19 -0 14 -20 -20 -20 -20 -20 -20 -20 -20 -20 -20 -20 -20 -20 -20 -20 -20 -20 -20 -20 -20 -20 -20 -20 -20 -20 -20 -20 -20 -20 -20 -20 -20 -20 -20
-20 -4 -20 -11 48 24 21 -6 1 -20 -20 -20 -20 -20 -20 -20 -20 -20 -20 -20 -20 -20 -20 -20 -20 -20 -20 -20 -20 -20 -20 -20 -20 -20 -20 -20 -20 -20 -20 -20 -20 -20 -20
-2 -13 -20 -12 34 31 16 -20 -13 -20 -20 -20 -20 -20 -20 -20 -20 -20 -20 -20 -20 -20 -20 -20 -20 -20 -20 -20 -20 -20 -20 -20 -20 -20 -20 -20 -20 -20 -20 -20 -20 -20 -20
-14 -20 -20 -10 17 41 31 22 12 -20 -20 -20 -20 -20 -20 -20 -20 -20 -20 -20 -20 -20 -20 -20 -20 -20 -20 -20 -20 -20 -20 -20 -20 -20 -20 -20 -20 -20 -20 -20 -20 -20 -20
-20 -20 -20 -2 1 7 27 17 11 -19 -20 -20 -20 -20 -20 -20 -20 -20 -20 -20 -20 -20 -20 -20 -20 -20 -20 -20 -20 -20 -20 -20 -20 -20 -20 -20 -20 -20 -20 -20 -20 -20 -20
-20 -5 -20 -9 22 40 25 18 17 -20 -20 -20 -20 -20 -20 -20 -20 -20 -20 -20 -20 -20 -20 -20 -20 -20 -20 -20 -20 -20 -20 -20 -20 -20 -20 -20 -20 -20 -20 -20 -20 -20 -20
-20 -20 -20 -12 26 28 26 35 -18 -20 -20 -20 -20 -20 -20 -20 -20 -20 -20 -20 -20 -20 -20 -20 -20 -20 -20 -20 -20 -20 -20 -20 -20 -20 -20 -20 -20 -20 -20 -20 -20 -20 -20
-1 -20 -3 -0 20 29 43 15 -14 -20 -20 -20 -20 -20 -20 -20 -20 -20 -20 -20 -20 -20 -20 -20 -20 -20 -20 -20 -20 -20 -20 -20 -20 -20 -20 -20 -20 -20 -20 -20 -20 -20 -20
Wind_Speed
12 18 18 19 20 17 17 16 15 14 14 13 13 12 11 10 9 8 8 8 6 8 8 8 9 8 9 8 8 7 8 8 8 8 7 6 6 6 7 6 6 7 5
14 19 18 19 20 18 16 15 14 13 12 13 12 11 10 10 9 9 8 7 7 7 7 8 8 8 7 8 9 9 8 7 6 5 2 5 4 3 5 5 6 8 7
16 18 18 18 19 17 16 15 14 14 13 12 11 11 10 10 10 9 8 7 7 8 8 9 9 9 9 8 7 9 8 6 5 3 3 2 7 4 6 6 7 7 7
15 17 18 16 19 18 16 16 15 15 12 12 11 11 11 11 8 7 8 9 10 10 9 8 8 8 8 8 8 8 6 6 5 4 3 4 5 6 7 8 9 10 6
14 15 15 15 17 17 16 15 14 15 14 12 11 11 10 8 7 6 6 6 7 7 6 6 7 6 6 6 6 5 5 5 3 6 3 5 4 8 9 10 9 9 9
14 14 15 15 17 16 16 15 16 14 14 13 11 10 9 8 8 7 6 6 6 6 6 6 6 6 6 6 6 6 6 4 7 3 3 5 7 9 9 9 8 8 8
13 14 15 17 16 15 16 15 14 14 13 13 13 11 10 9 8 7 6 6 6 6 6 6 6 6 6 6 5 5 6 4 1 3 4 4 9 8 8 8 8 7 8
13 13 15 14 15 16 16 15 13 13 13 13 13 12 10 9 8 7 7 7 6 6 6 6 6 6 6 6 7 7 6 5 3 5 4 5 7 7 6 6 6 7 9
13 13 13 14 15 14 15 14 12 13 13 12 13 13 11 9 8 8 7 6 6 6 6 6 6 5 7 9 9 9 7 6 5 5 4 3 7 5 6 4 5 7 9
12 11 13 13 13 14 12 14 10 10 11 11 11 12 11 10 10 8 7 6 6 6 7 7 6 6 9 10 9 8 4 3 6 4 3 7 5 4 5 5 8 10 13
9 8 9 12 11 10 11 11 10 10 11 13 12 10 8 6 8 7 10 7 6 7 8 8 8 9 11 10 8 5 6 3 4 4 5 11 3 7 12 13 13 13 14
10 8 9 10 10 10 7 12 9 10 8 7 7 8 5 6 6 7 8 9 8 9 9 8 8 7 5 4 5 4 3 4 4 4 7 13 11 13 14 12 12 12 12
8 9 10 10 11 11 8 8 5 5 5 5 7 6 6 5 5 4 4 4 4 2 4 5 6 3 4 3 3 4 4 4 3 3 9 12 12 14 13 10 9 10 10
12 13 14 15 13 10 7 8 8 6 6 5 6 7 5 4 4 4 3 3 3 2 3 3 3 4 5 5 4 4 5 4 3 2 9 13 13 13 13 11 11 10 10
14 9 17 16 16 13 11 7 9 7 6 6 6 6 5 5 5 4 4 3 3 3 3 3 4 4 4 4 3 4 4 4 5 3 5 12 13 12 11 11 11 11 11
17 14 10 15 14 14 11 10 9 8 7 6 6 6 7 5 5 4 4 4 3 2 3 3 3 3 3 2 3 3 4 3 4 4 3 7 10 11 10 10 10 10 10
15 13 11 11 15 13 16 8 9 8 8 7 6 7 7 6 6 5 4 4 4 3 4 4 4 3 3 2 2 2 3 3 2 3 3 3 4 8 9 9 9 9 9
18 12 11 10 14 16 13 10 8 9 7 6 6 6 7 7 7 5 5 4 4 3 3 3 3 3 3 2 0 2 2 2 2 2 2 2 3 3 4 8 9 9 9
19 12 17 10 12 16 12 9 10 11 8 7 6 6 7 7 7 6 5 4 4 3 3 3 3 1 2 2 1 2 1 2 2 1 2 2 3 2 3 4 4 5 7
17 14 17 12 10 10 10 11 10 9 8 7 6 6 8 6 7 6 5 5 4 4 3 3 4 3 2 2 1 2 2 1 1 1 1 1 1 1 2 4 3 2 3
15 15 15 18 17 8 8 12 11 11 9 7 6 8 8 7 7 7 5 5 4 4 4 4 4 4 3 3 3 3 4 2 2 1 1 1 1 1 3 3 3 4 3
16 15 14 15 17 13 8 11 10 10 9 8 7 7 7 7 7 6 7 6 5 4 5 4 3 2 3 5 2 1 4 4 3 2 2 2 3 2 2 4 6 6 6
15 15 15 16 15 13 12 9 11 10 10 7 7 7 6 7 7 7 7 6 5 4 4 4 3 1 3 4 6 3 2 2 0 3 3 2 1 3 4 5 5 6 6
18 17 16 16 17 11 12 11 17 11 12 9 8 7 7 7 7 7 7 7 6 4 6 4 3 3 3 4 2 5 6 4 2 2 4 2 2 5 6 4 6 5 5
16 16 16 17 14 14 10 14 12 13 9 10 9 12 9 7 7 7 7 7 7 4 6 5 3 5 4 4 3 2 4 3 4 2 2 4 5 3 4 7 6 5 5
12 13 15 18 15 13 14 15 14 16 14 12 12 9 8 7 6 7 7 6 6 6 7 4 4 6 6 4 3 4 3 3 3 2 3 5 7 5 6 4 5 3 6
Wind_Direction
159 160 168 160 159 160 158 154 151 147 146 144 141 138 132 127 119 114 115 106 96 98 94 97 86 74 63 72 67 92 78 63 58 56 51 52 52 71 65 50 334 53 67
163 161 166 165 157 161 160 156 151 149 149 147 145 143 138 130 131 115 102 94 96 94 98 95 95 90 76 71 72 79 70 63 55 56 51 159 105 63 70 55 14 31 49
168 163 173 166 157 160 160 157 153 153 153 153 156 153 139 126 113 107 99 94 89 89 85 84 82 80 70 77 74 78 66 59 50 41 276 27 89 76 62 42 40 30 31
168 163 171 166 157 159 159 160 161 160 158 143 135 133 122 111 109 107 82 79 86 84 76 74 71 69 62 59 63 62 57 47 25 310 249 47 93 83 70 58 50 44 24
173 169 163 164 157 157 159 163 168 147 138 130 119 114 115 121 120 116 110 92 87 85 88 79 74 67 63 65 66 61 50 44 353 257 71 61 41 75 68 42 43 43 27
177 176 144 161 160 159 165 164 151 143 140 135 123 127 126 124 119 114 107 99 91 86 79 79 76 72 65 62 56 54 52 26 278 75 93 102 62 71 58 52 47 39 33
185 184 165 164 162 167 166 150 139 146 144 136 131 127 124 121 119 117 111 102 96 90 87 84 83 82 72 59 58 63 67 26 353 94 94 71 73 66 55 44 34 39 41
199 185 173 165 161 161 151 135 147 147 143 137 133 131 127 122 119 116 112 108 104 99 96 93 89 89 77 67 73 79 65 337 123 88 81 79 57 52 39 29 36 52 55
205 192 181 175 165 149 133 128 146 148 141 138 135 129 124 121 117 114 111 108 107 104 103 102 102 97 85 86 83 79 65 1 72 68 55 71 25 24 22 39 65 70 65
196 208 191 182 175 157 135 122 133 135 135 135 128 118 111 109 110 102 119 100 102 108 111 101 93 116 101 94 83 74 67 263 69 65 45 27 348 34 72 86 85 74 66
198 210 186 150 139 137 134 121 126 126 123 118 120 118 150 129 128 138 61 87 86 119 101 98 97 108 106 91 78 63 287 45 47 38 39 358 38 88 84 74 73 75 63
198 176 168 149 135 133 139 152 162 147 162 155 156 160 139 134 106 99 90 84 82 86 90 93 97 118 211 127 122 181 55 46 49 49 55 15 84 87 74 64 64 58 60
243 184 168 159 148 143 144 161 161 160 159 155 157 161 146 136 149 142 137 142 137 180 129 144 150 112 102 102 106 87 60 49 51 63 44 24 48 66 63 57 56 50 55
243 228 174 161 155 142 137 174 158 162 165 160 159 154 162 150 145 142 136 132 132 118 118 110 104 106 105 92 79 79 64 46 41 55 73 33 46 50 51 46 41 37 29
243 213 198 169 155 143 139 177 158 154 167 156 159 157 161 154 149 143 129 125 115 128 129 133 119 120 110 100 102 91 73 50 56 76 91 44 48 51 50 49 46 38 29
256 222 243 172 159 143 132 182 154 157 150 160 156 158 153 145 147 141 135 122 111 113 123 125 111 106 104 103 99 80 80 68 72 81 75 86 56 48 47 45 44 39 29
255 226 171 187 162 157 141 168 145 149 154 156 152 156 155 151 149 138 126 124 109 105 124 127 114 109 104 96 106 124 105 91 112 103 89 66 106 72 40 37 33 31 20
254 192 181 209 164 159 143 145 148 148 147 147 152 154 155 148 145 138 128 120 119 120 137 133 124 121 105 94 95 128 141 133 129 110 83 70 60 25 92 34 24 21 15
244 203 181 183 182 154 136 146 145 144 143 143 148 151 153 144 142 135 125 121 128 126 125 130 112 103 123 130 238 219 160 189 152 160 101 64 65 29 5 82 19 10 359
232 190 179 156 200 163 145 137 137 140 138 144 144 149 148 139 136 129 124 124 128 127 129 125 122 95 36 9 194 173 151 187 209 185 127 172 44 5 358 342 333 353 315
216 191 178 165 160 175 155 146 147 150 144 142 138 142 139 137 133 132 124 126 122 117 117 127 112 133 77 24 181 131 107 112 149 173 231 261 142 332 335 334 335 324 320
196 187 170 166 152 164 190 145 152 146 141 135 134 135 135 138 136 134 131 126 123 123 109 109 176 166 80 32 348 202 147 146 122 77 85 80 86 89 358 330 325 322 315
193 182 168 168 162 168 175 137 142 128 125 133 142 134 138 137 132 130 129 128 122 117 105 88 82 83 114 65 38 338 166 100 233 151 134 101 122 329 333 328 326 320 328
194 180 169 165 163 147 183 162 156 146 149 152 150 136 135 136 131 130 126 123 117 111 106 89 68 93 89 105 102 52 58 25 15 178 165 272 273 325 340 336 330 330 336
188 173 163 159 160 146 191 178 157 144 139 142 140 140 136 133 132 129 125 124 117 116 101 100 121 93 78 81 61 118 72 71 54 341 319 335 326 335 327 330 331 330 334
174 163 160 157 153 155 194 166 160 144 145 143 145 144 145 138 138 130 128 123 120 121 110 117 111 88 90 91 86 70 57 38 36 9 310 329 315 306 318 317 320 336 336